| time (UTC) | temp C | wind direction | speed KPH | gust KPH | rain 1hr cm | rain 24hr cm | rain mn cm | humidity % | barometer mb |
| 20260503235304 | 13 | 221 | 9.7 | 14.5 | 0.05 | 2.92 | 0.13 | 94 | 1014.1 |
| 20260503234304 | 13 | 217 | 9.7 | 14.5 | 0.05 | 2.95 | 0.13 | 94 | 1014.2 |
| 20260503233803 | 13 | 216 | 8.0 | 14.5 | 0.05 | 2.95 | 0.13 | 94 | 1014.2 |
| 20260503232305 | 13 | 214 | 9.7 | 19.3 | 0.05 | 2.97 | 0.13 | 93 | 1014.2 |
| 20260503230309 | 13 | 209 | 9.7 | 19.3 | 0.08 | 2.97 | 0.08 | 93 | 1014.2 |
| 20260503225804 | 13 | 214 | 11.3 | 20.9 | 0.05 | 2.95 | 0.05 | 93 | 1014.2 |
| 20260503224806 | 13 | 231 | 11.3 | 20.9 | 0.05 | 2.95 | 0.05 | 93 | 1014.2 |
| 20260503224304 | 13 | 214 | 9.7 | 16.1 | 0.05 | 2.95 | 0.05 | 93 | 1014.2 |
| 20260503222304 | 13 | 214 | 8.0 | 16.1 | 0.05 | 2.95 | 0.05 | 93 | 1014.3 |
| 20260503221303 | 13 | 215 | 6.4 | 11.3 | 0.05 | 2.95 | 0.05 | 93 | 1014.4 |
| 20260503220305 | 14 | 223 | 8.0 | 11.3 | 0.00 | 2.87 | 0.00 | 93 | 1014.3 |
| 20260503215803 | 14 | 233 | 8.0 | 14.5 | 0.00 | 2.87 | 2.87 | 93 | 1014.3 |
| 20260503215304 | 14 | 247 | 8.0 | 11.3 | 0.00 | 2.87 | 2.87 | 93 | 1014.3 |
| 20260503214303 | 14 | 243 | 8.0 | 14.5 | 0.00 | 2.87 | 2.87 | 93 | 1014.3 |
| 20260503213306 | 13 | 250 | 11.3 | 19.3 | 0.00 | 2.87 | 2.87 | 93 | 1014.3 |
| 20260503212304 | 14 | 255 | 9.7 | 19.3 | 0.00 | 2.87 | 2.87 | 93 | 1014.3 |
| 20260503210306 | 14 | 227 | 11.3 | 22.5 | 0.00 | 2.87 | 2.87 | 93 | 1014.1 |
| 20260503204805 | 14 | 281 | 14.5 | 24.1 | 0.08 | 2.87 | 2.87 | 93 | 1013.8 |
| 20260503204303 | 14 | 271 | 11.3 | 20.9 | 0.15 | 2.87 | 2.87 | 93 | 1013.7 |
| 20260503203306 | 13 | 258 | 16.1 | 24.1 | 0.23 | 2.87 | 2.87 | 93 | 1013.6 |
| 20260503201303 | 13 | 270 | 19.3 | 29.0 | 1.83 | 2.87 | 2.87 | 93 | 1013.4 |
| 20260503200307 | 13 | 254 | 19.3 | 33.8 | 2.74 | 2.87 | 2.87 | 92 | 1013.2 |
| 20260503195304 | 13 | 272 | 14.5 | 32.2 | 2.72 | 2.87 | 2.87 | 92 | 1013.2 |
| 20260503194806 | 14 | 257 | 17.7 | 32.2 | 2.67 | 2.79 | 2.79 | 92 | 1013.2 |
| 20260503193306 | 14 | 304 | 19.3 | 35.4 | 2.49 | 2.64 | 2.64 | 92 | 1012.8 |
| 20260503192305 | 14 | 278 | 19.3 | 32.2 | 2.16 | 2.31 | 2.31 | 91 | 1012.5 |
| 20260503191807 | 14 | 300 | 25.7 | 41.8 | 1.63 | 1.75 | 1.75 | 91 | 1012.3 |
| 20260503191304 | 15 | 273 | 20.9 | 40.2 | 0.91 | 1.07 | 1.07 | 90 | 1012.1 |
| 20260503190306 | 16 | 261 | 9.7 | 14.5 | 0.00 | 0.15 | 0.15 | 89 | 1011.8 |
| 20260503185803 | 16 | 29 | 4.8 | 8.0 | 0.00 | 0.15 | 0.15 | 89 | 1011.4 |
| 20260503185304 | 16 | 51 | 6.4 | 9.7 | 0.00 | 0.15 | 0.15 | 89 | 1011.3 |
| 20260503184806 | 16 | 54 | 8.0 | 12.9 | 0.00 | 0.15 | 0.15 | 89 | 1011.2 |
| 20260503184303 | 16 | 35 | 9.7 | 12.9 | 0.00 | 0.15 | 0.15 | 89 | 1011.3 |
| 20260503182305 | 16 | 21 | 9.7 | 12.9 | 0.00 | 0.15 | 0.15 | 89 | 1011.4 |
| 20260503180804 | 16 | 6 | 9.7 | 11.3 | 0.00 | 0.15 | 0.15 | 89 | 1011.5 |
| 20260503180306 | 16 | 347 | 8.0 | 12.9 | 0.00 | 0.15 | 0.15 | 89 | 1011.5 |
| 20260503175803 | 16 | 13 | 11.3 | 14.5 | 0.00 | 0.15 | 0.15 | 89 | 1011.5 |
| 20260503175304 | 16 | 12 | 9.7 | 14.5 | 0.00 | 0.15 | 0.15 | 90 | 1011.5 |
| 20260503173803 | 16 | 356 | 12.9 | 19.3 | 0.00 | 0.15 | 0.15 | 90 | 1011.4 |
| 20260503171806 | 16 | 349 | 12.9 | 14.5 | 0.00 | 0.15 | 0.15 | 90 | 1011.6 |
| 20260503171304 | 16 | 352 | 11.3 | 14.5 | 0.00 | 0.15 | 0.15 | 91 | 1011.6 |
| 20260503170306 | 16 | 348 | 9.7 | 11.3 | 0.00 | 0.15 | 0.15 | 91 | 1011.7 |
| 20260503131304 | 17 | 19 | 11.3 | 19.3 | 0.00 | 0.69 | 0.08 | 87 | 1012.1 |
| 20260503080803 | 15 | 344 | 1.6 | 4.8 | 0.00 | 0.89 | 0.08 | 95 | 1013.6 |
| 20260503072803 | 15 | 201 | 0.0 | 1.6 | 0.00 | 1.12 | 0.08 | 95 | 1013.3 |
| 20260503071303 | 14 | 201 | 1.6 | 4.8 | 0.00 | 1.12 | 0.08 | 95 | 1013.3 |
| 20260503070804 | 13 | 201 | 0.0 | 1.6 | 0.00 | 1.12 | 0.08 | 95 | 1013.3 |
| 20260503060306 | 13 | 190 | 1.6 | 3.2 | 0.00 | 1.12 | 0.08 | 94 | 1013.1 |
| 20260503053804 | 13 | 174 | 4.8 | 9.7 | 0.00 | 1.12 | 0.08 | 94 | 1013.0 |
| 20260503053307 | 13 | 141 | 8.0 | 12.9 | 0.00 | 1.12 | 0.08 | 94 | 1013.0 |
| 20260503051303 | 13 | 180 | 3.2 | 4.8 | 0.00 | 1.12 | 0.08 | 94 | 1013.0 |
| 20260503050803 | 13 | 173 | 3.2 | 4.8 | 0.00 | 1.12 | 0.08 | 94 | 1013.0 |
| 20260503045305 | 13 | 180 | 3.2 | 4.8 | 0.00 | 1.12 | 0.08 | 94 | 1013.0 |
| 20260503044806 | 13 | 170 | 3.2 | 8.0 | 0.00 | 1.12 | 0.08 | 94 | 1013.1 |
| 20260503043804 | 13 | 176 | 3.2 | 4.8 | 0.00 | 1.12 | 0.08 | 94 | 1012.9 |
| 20260503041807 | 13 | 201 | 4.8 | 8.0 | 0.00 | 1.12 | 0.08 | 94 | 1012.9 |
| 20260503040306 | 13 | 206 | 4.8 | 9.7 | 0.00 | 1.12 | 0.08 | 94 | 1012.9 |
| 20260503034806 | 13 | 197 | 4.8 | 4.8 | 0.00 | 1.12 | 0.08 | 94 | 1013.1 |
| 20260503032803 | 14 | 204 | 4.8 | 8.0 | 0.00 | 1.12 | 0.08 | 94 | 1013.1 |
| 20260503031304 | 14 | 192 | 3.2 | 4.8 | 0.00 | 1.12 | 0.08 | 94 | 1013.1 |
| 20260503030803 | 14 | 183 | 3.2 | 4.8 | 0.00 | 1.12 | 0.08 | 94 | 1013.1 |
| 20260503025803 | 14 | 171 | 3.2 | 4.8 | 0.00 | 1.12 | 0.08 | 94 | 1013.2 |
| 20260503025305 | 14 | 207 | 3.2 | 4.8 | 0.00 | 1.12 | 0.08 | 94 | 1013.2 |
| 20260503023306 | 14 | 197 | 1.6 | 4.8 | 0.00 | 1.12 | 0.08 | 94 | 1013.3 |
| 20260503022803 | 14 | 197 | 3.2 | 4.8 | 0.00 | 1.12 | 0.08 | 94 | 1013.3 |
| 20260503022305 | 14 | 201 | 3.2 | 4.8 | 0.00 | 1.12 | 0.08 | 94 | 1013.3 |
| 20260503021806 | 14 | 206 | 4.8 | 8.0 | 0.00 | 1.12 | 0.08 | 93 | 1013.4 |
| 20260503020306 | 14 | 212 | 3.2 | 4.8 | 0.00 | 1.12 | 0.08 | 93 | 1013.4 |
| 20260503015803 | 14 | 197 | 4.8 | 9.7 | 0.00 | 1.12 | 0.08 | 93 | 1013.6 |
| 20260503015305 | 14 | 225 | 4.8 | 8.0 | 0.00 | 1.12 | 0.08 | 93 | 1013.6 |
| 20260503013305 | 15 | 157 | 0.0 | 0.0 | 0.00 | 1.12 | 0.08 | 93 | 1013.6 |
| 20260503012803 | 15 | 157 | 0.0 | 4.8 | 0.00 | 1.12 | 0.08 | 93 | 1013.6 |
| 20260503012305 | 15 | 157 | 1.6 | 4.8 | 0.00 | 1.12 | 0.08 | 93 | 1013.7 |
| 20260503011304 | 15 | 157 | 0.0 | 4.8 | 0.00 | 1.12 | 0.08 | 93 | 1014.0 |
| 20260503001805 | 15 | 209 | 0.0 | 4.8 | 0.08 | 1.12 | 0.08 | 93 | 1014.3 |